FW2736 Weather Reports


Display with metric or nautical units.
time (UTC)temp
F
wind
direction
speed
MPH
gust
MPH
rain 1hr
in
rain 24hr
in
rain mn
in
humidity
%
barometer
mb
20260906052739 76 285 3.0 0.0 0.00 0.00 0.00 39 961.7
20260906052240 76 319 3.0 0.0 0.00 0.00 0.00 38 961.7
20260906051740 77 304 3.0 0.0 0.00 0.00 0.00 38 961.7
20260906050138 78 305 1.0 0.0 0.00 0.00 0.00 38 961.7
20260906040233 80 275 2.0 0.0 0.00 0.00 0.00 36 961.4
20260906035834 81 177 2.0 0.0 0.00 0.00 0.00 35 961.4
20260906015628 87 333 12.0 0.0 0.00 0.00 0.00 31 960.4
20260906015029 88 99 12.0 0.0 0.00 0.00 0.00 31 960.4
20260906014628 88 104 9.0 0.0 0.00 0.00 0.00 30 960.4
20260906013927 88 168 9.0 0.0 0.00 0.00 0.00 30 960.4
20260906013428 88 233 10.0 0.0 0.00 0.00 0.00 30 960.4
20260906012326 89 55 10.0 0.0 0.00 0.00 0.00 30 960.4
20260906011826 89 124 11.0 0.0 0.00 0.00 0.00 30 960.4
20260906011326 89 137 11.0 0.0 0.00 0.00 0.00 29 960.4
20260906010841 89 196 11.0 0.0 0.00 0.00 0.00 29 960.4
20260906010326 90 77 11.0 0.0 0.00 0.00 0.00 29 960.4
20260906010026 90 223 11.0 0.0 0.00 0.00 0.00 28 960.4
20260906005324 91 177 8.0 0.0 0.00 0.00 0.00 29 960.4
20260906004823 91 170 10.0 0.0 0.00 0.00 0.00 28 960.4
20260906004240 91 116 9.0 0.0 0.00 0.00 0.00 28 960.0
20260906003825 91 112 11.0 0.0 0.00 0.00 0.00 28 960.0
20260906003242 91 161 11.0 0.0 0.00 0.00 0.00 28 960.0
20260906002825 91 84 10.0 0.0 0.00 0.00 0.00 28 960.0
20260906002323 92 177 9.0 0.0 0.00 0.00 0.00 28 960.0
20260906001924 93 35 10.0 0.0 0.00 0.00 0.00 27 960.0
20260906000740 93 162 11.0 0.0 0.00 0.00 0.00 27 960.0
20260906000340 93 139 11.0 0.0 0.00 0.00 0.00 27 960.0
20260905235822 93 197 11.0 0.0 0.00 0.00 0.00 27 960.0
20260905235321 93 143 9.0 0.0 0.00 0.00 0.00 27 960.0
20260905234822 93 139 13.0 0.0 0.00 0.00 0.00 27 960.0
20260905234322 93 211 11.0 0.0 0.00 0.00 0.00 27 960.0
20260905233822 92 182 12.0 0.0 0.00 0.00 0.00 27 960.0
20260905233322 93 179 12.0 0.0 0.00 0.00 0.00 27 960.0
20260905232741 93 168 10.0 0.0 0.00 0.00 0.00 27 960.0
20260905232322 92 171 11.0 0.0 0.00 0.00 0.00 27 960.0
20260905231821 93 195 10.0 0.0 0.00 0.00 0.00 27 960.0
20260905231320 93 154 10.0 0.0 0.00 0.00 0.00 27 960.0
20260905230742 94 162 13.0 0.0 0.00 0.00 0.00 26 960.0
20260905230323 93 67 13.0 0.0 0.00 0.00 0.00 26 960.0
20260905225742 94 133 8.0 0.0 0.00 0.00 0.00 25 960.0
20260905225320 93 135 7.0 0.0 0.00 0.00 0.00 25 960.0
20260905224826 92 39 12.0 0.0 0.00 0.00 0.00 25 960.4
20260905224241 93 98 9.0 0.0 0.00 0.00 0.00 25 960.4
20260905223821 95 135 12.0 0.0 0.00 0.00 0.00 24 960.4
20260905223252 94 123 12.0 0.0 0.00 0.00 0.00 24 960.4
20260905222832 93 343 9.0 0.0 0.00 0.00 0.00 24 960.4
20260905222331 93 107 13.0 0.0 0.00 0.00 0.00 24 960.4
20260905221824 95 190 9.0 0.0 0.00 0.00 0.00 23 960.4
20260905221247 94 131 10.0 0.0 0.00 0.00 0.00 24 960.4
20260905220829 94 185 11.0 0.0 0.00 0.00 0.00 23 960.4
20260905220252 95 123 9.0 0.0 0.00 0.00 0.00 23 960.4
20260905215831 96 206 8.0 0.0 0.00 0.00 0.00 22 960.7
20260905215254 95 166 9.0 0.0 0.00 0.00 0.00 23 960.7
20260905214751 93 200 9.0 0.0 0.00 0.00 0.00 24 960.7
20260905214330 93 60 12.0 0.0 0.00 0.00 0.00 24 960.7
20260905213830 94 165 12.0 0.0 0.00 0.00 0.00 23 960.7
20260905213244 95 319 9.0 0.0 0.00 0.00 0.00 24 960.7
20260905212748 92 310 9.0 0.0 0.00 0.00 0.00 25 961.1
20260905212343 93 174 13.0 0.0 0.00 0.00 0.00 24 961.1
20260905211829 94 202 13.0 0.0 0.00 0.00 0.00 24 961.1
20260905211328 94 40 10.0 0.0 0.00 0.00 0.00 24 961.1
20260905210829 95 146 14.0 0.0 0.00 0.00 0.00 22 961.1
20260905210329 94 131 11.0 0.0 0.00 0.00 0.00 24 961.1
20260905205753 95 105 12.0 0.0 0.00 0.00 0.00 21 961.1
20260905205321 95 195 10.0 0.0 0.00 0.00 0.00 21 961.4
20260905204826 94 141 11.0 0.0 0.00 0.00 0.00 22 961.4
20260905204328 94 129 14.0 0.0 0.00 0.00 0.00 22 961.4
20260905203816 95 138 14.0 0.0 0.00 0.00 0.00 19 961.4
20260905203316 94 66 10.0 0.0 0.00 0.00 0.00 18 961.4
20260905202815 94 39 10.0 0.0 0.00 0.00 0.00 18 961.4
20260905202243 94 144 10.0 0.0 0.00 0.00 0.00 20 961.4
20260905201815 94 107 11.0 0.0 0.00 0.00 0.00 19 961.4
20260905201314 93 113 11.0 0.0 0.00 0.00 0.00 20 961.7
20260905200740 93 125 15.0 0.0 0.00 0.00 0.00 19 961.7
20260905200314 94 126 13.0 0.0 0.00 0.00 0.00 16 961.7
20260905195743 94 137 9.0 0.0 0.00 0.00 0.00 16 961.7
20260905195313 93 334 8.0 0.0 0.00 0.00 0.00 15 961.7
20260905194813 92 193 7.0 0.0 0.00 0.00 0.00 15 961.7
20260905194315 92 118 9.0 0.0 0.00 0.00 0.00 16 962.1
20260905193814 92 149 9.0 0.0 0.00 0.00 0.00 15 962.1
20260905193312 92 348 8.0 0.0 0.00 0.00 0.00 15 962.1
20260905192814 92 141 9.0 0.0 0.00 0.00 0.00 13 962.1
20260905192324 91 107 11.0 0.0 0.00 0.00 0.00 14 962.4
20260905191403 92 114 10.0 0.0 0.00 0.00 0.00 12 962.4
20260905190817 92 193 9.0 0.0 0.00 0.00 0.00 12 962.4
20260905190311 93 162 9.0 0.0 0.00 0.00 0.00 11 962.4
20260905185814 93 117 9.0 0.0 0.00 0.00 0.00 11 962.4
20260905185243 92 135 9.0 0.0 0.00 0.00 0.00 12 962.4
20260905184743 91 128 9.0 0.0 0.00 0.00 0.00 13 962.4
20260905184240 92 190 8.0 0.0 0.00 0.00 0.00 13 962.4
20260905183742 91 118 8.0 0.0 0.00 0.00 0.00 15 962.4
20260905183242 92 165 7.0 0.0 0.00 0.00 0.00 15 962.8
20260905182814 91 119 8.0 0.0 0.00 0.00 0.00 14 962.8
20260905182314 90 120 8.0 0.0 0.00 0.00 0.00 16 962.8
20260905181811 90 142 7.0 0.0 0.00 0.00 0.00 15 962.8
20260905181311 90 130 7.0 0.0 0.00 0.00 0.00 16 962.8
20260905180742 89 61 4.0 0.0 0.00 0.00 0.00 16 962.8
20260905180240 89 37 3.0 0.0 0.00 0.00 0.00 16 962.8
20260905175813 89 293 6.0 0.0 0.00 0.00 0.00 16 962.8
20260905175312 87 18 6.0 0.0 0.00 0.00 0.00 17 962.8
20260905174812 88 143 6.0 0.0 0.00 0.00 0.00 18 962.8
20260905174241 88 114 4.0 0.0 0.00 0.00 0.00 19 962.8
20260905173812 86 90 5.0 0.0 0.00 0.00 0.00 19 962.8
20260905173242 85 102 4.0 0.0 0.00 0.00 0.00 22 962.8
20260905172813 85 64 4.0 0.0 0.00 0.00 0.00 21 962.8
20260905172312 84 341 4.0 0.0 0.00 0.00 0.00 23 962.8
20260905171753 84 312 6.0 0.0 0.00 0.00 0.00 22 962.8
20260905171306 83 345 6.0 0.0 0.00 0.00 0.00 23 962.8
20260905170805 83 336 4.0 0.0 0.00 0.00 0.00 23 962.8
20260905170315 83 109 5.0 0.0 0.00 0.00 0.00 24 962.8
20260905165816 82 68 5.0 0.0 0.00 0.00 0.00 24 962.8
20260905165328 82 335 4.0 0.0 0.00 0.00 0.00 23 962.8
20260905164841 81 135 3.0 0.0 0.00 0.00 0.00 24 962.8
20260905164236 80 329 4.0 0.0 0.00 0.00 0.00 25 962.8
20260905163738 80 312 4.0 0.0 0.00 0.00 0.00 25 962.8
20260905163256 79 326 5.0 0.0 0.00 0.00 0.00 25 962.8
20260905162814 78 346 5.0 0.0 0.00 0.00 0.00 26 962.8
20260905162329 78 54 3.0 0.0 0.00 0.00 0.00 27 962.8
20260905161741 78 139 3.0 0.0 0.00 0.00 0.00 27 962.8
20260905161239 77 333 3.0 0.0 0.00 0.00 0.00 26 962.8
20260905160741 76 99 5.0 0.0 0.00 0.00 0.00 28 962.8
20260905160306 77 325 5.0 0.0 0.00 0.00 0.00 27 962.8
20260905155826 76 95 3.0 0.0 0.00 0.00 0.00 29 962.8
20260905155242 76 87 3.0 0.0 0.00 0.00 0.00 30 962.8
20260905154739 74 127 2.0 0.0 0.00 0.00 0.00 32 962.8
20260905154253 73 159 4.0 0.0 0.00 0.00 0.00 31 962.8
20260905153813 73 138 4.0 0.0 0.00 0.00 0.00 33 962.8
20260905153322 73 92 4.0 0.0 0.00 0.00 0.00 33 962.8
20260905152741 72 121 4.0 0.0 0.00 0.00 0.00 34 962.4
20260905152238 70 113 4.0 0.0 0.00 0.00 0.00 35 962.4
20260905151752 70 117 4.0 0.0 0.00 0.00 0.00 36 962.4
20260905151322 69 134 4.0 0.0 0.00 0.03 0.00 37 962.4
20260905150739 68 120 3.0 0.0 0.00 0.03 0.00 37 962.4
20260905150245 68 145 3.0 0.0 0.00 0.03 0.00 37 962.4
20260905145816 67 90 3.0 0.0 0.00 0.03 0.00 40 962.4
20260905145237 66 108 3.0 0.0 0.00 0.05 0.00 40 962.4
20260905144743 66 95 2.0 0.0 0.00 0.05 0.00 39 962.4
20260905144316 66 78 2.0 0.0 0.00 0.05 0.00 37 962.4
20260905143739 66 59 0.0 0.0 0.00 0.05 0.00 36 962.4
20260905143242 65 5 1.0 0.0 0.00 0.05 0.00 37 962.4
20260905142813 63 11 1.0 0.0 0.00 0.05 0.00 40 962.4
20260905142239 63 344 0.0 0.0 0.00 0.05 0.00 39 962.4
20260905141742 62 343 0.0 0.0 0.00 0.05 0.00 39 962.1
20260905141317 62 357 0.0 0.0 0.00 0.05 0.00 42 962.1
20260905140740 62 341 1.0 0.0 0.00 0.05 0.00 39 962.1
20260905140259 62 334 0.0 0.0 0.00 0.05 0.00 40 962.1
20260905135713 61 316 0.0 0.0 0.00 0.05 0.00 41 962.1
20260905135245 59 316 0.0 0.0 0.00 0.05 0.00 43 962.1
20260905134840 54 317 0.0 0.0 0.00 0.05 0.00 48 962.1
20260905134525 54 317 0.0 0.0 0.00 0.05 0.00 48 962.1
20260905133813 54 317 0.0 0.0 0.00 0.05 0.00 48 962.1
20260905133241 54 334 0.0 0.0 0.00 0.05 0.00 47 962.1
20260905132753 54 334 0.0 0.0 0.00 0.05 0.00 47 962.1
20260905132242 54 334 0.0 0.0 0.00 0.05 0.00 47 962.1
20260905131742 55 334 0.0 0.0 0.00 0.05 0.00 47 962.1
20260905131324 55 333 0.0 0.0 0.00 0.05 0.00 46 962.1
20260905130733 55 333 0.0 0.0 0.00 0.05 0.00 47 962.1
20260905130315 55 333 0.0 0.0 0.00 0.05 0.00 46 961.7
20260905125733 55 333 0.0 0.0 0.00 0.05 0.00 46 961.7
20260905125314 55 333 0.0 0.0 0.00 0.05 0.00 46 961.7
20260905124731 55 333 0.0 0.0 0.00 0.05 0.00 45 961.7
20260905124316 55 333 0.0 0.0 0.00 0.05 0.00 46 961.7
20260905123738 55 326 0.0 0.0 0.00 0.05 0.00 44 961.7
20260905123236 55 325 0.0 0.0 0.00 0.05 0.00 44 961.7
20260905122747 55 326 0.0 0.0 0.00 0.05 0.00 44 961.7
20260905122459 54 341 0.0 0.0 0.00 0.05 0.00 45 961.4
20260905122046 54 305 0.0 0.0 0.00 0.05 0.00 46 961.4
20260905121222 54 313 0.0 0.0 0.00 0.05 0.00 47 961.4
20260905120804 55 342 0.0 0.0 0.00 0.05 0.00 46 961.4
20260905120237 55 319 0.0 0.0 0.00 0.05 0.00 47 961.7
20260905115814 55 319 0.0 0.0 0.00 0.05 0.00 47 961.4
20260905115233 55 330 0.0 0.0 0.00 0.05 0.00 47 961.4
20260905114820 55 326 0.0 0.0 0.00 0.05 0.00 46 961.4
20260905114242 55 326 0.0 0.0 0.00 0.05 0.00 46 961.4
20260905113740 56 323 0.0 0.0 0.00 0.05 0.00 47 961.4
20260905113253 56 323 0.0 0.0 0.00 0.05 0.00 47 961.4
20260905112739 56 323 0.0 0.0 0.00 0.05 0.00 47 961.4
20260905112312 57 323 1.0 0.0 0.00 0.05 0.00 47 961.4
20260905111742 58 323 2.0 0.0 0.00 0.05 0.00 47 961.4
20260905111304 58 330 2.0 0.0 0.00 0.05 0.00 46 961.4
20260905110736 59 331 0.0 0.0 0.00 0.05 0.00 43 961.4
20260905110314 59 341 3.0 0.0 0.00 0.05 0.00 43 961.7
20260905105738 58 248 3.0 0.0 0.00 0.05 0.00 43 961.7
20260905105238 57 216 3.0 0.0 0.00 0.05 0.00 48 961.7
20260905104751 57 276 0.0 0.0 0.00 0.05 0.00 44 961.7
20260905104237 57 277 0.0 0.0 0.00 0.05 0.00 41 961.7
20260905103815 57 314 0.0 0.0 0.00 0.05 0.00 41 961.7
20260905103246 57 187 0.0 0.0 0.00 0.05 0.00 42 961.7
20260905102740 58 315 0.0 0.0 0.00 0.05 0.00 38 961.7
20260905102306 58 315 0.0 0.0 0.00 0.05 0.00 39 961.7
20260905101742 59 314 0.0 0.0 0.00 0.05 0.00 39 961.7
20260905101252 59 315 2.0 0.0 0.00 0.05 0.00 41 961.7
20260905100737 58 301 2.0 0.0 0.00 0.05 0.00 41 961.7
20260905100312 58 350 1.0 0.0 0.00 0.05 0.00 45 961.7
20260905095738 58 348 0.0 0.0 0.00 0.05 0.00 46 961.7
20260905095301 59 72 0.0 0.0 0.00 0.05 0.00 45 961.7
20260905094731 59 356 2.0 0.0 0.00 0.05 0.00 45 961.7
20260905094238 59 329 2.0 0.0 0.00 0.05 0.00 45 961.7
20260905093739 60 154 1.0 0.0 0.00 0.05 0.00 46 961.7
20260905093304 60 151 0.0 0.0 0.00 0.05 0.00 43 961.7
20260905092746 60 326 1.0 0.0 0.00 0.05 0.00 42 961.7
20260905092239 60 19 0.0 0.0 0.00 0.05 0.00 42 961.7
20260905091737 61 20 1.0 0.0 0.00 0.05 0.00 41 961.7
20260905091238 61 326 1.0 0.0 0.00 0.05 0.00 41 961.7
20260905090738 61 349 1.0 0.0 0.00 0.05 0.00 40 961.7
20260905090315 61 327 2.0 0.0 0.00 0.05 0.00 40 961.7
20260905085759 61 305 2.0 0.0 0.00 0.05 0.00 40 961.7
20260905085255 61 324 2.0 0.0 0.00 0.05 0.00 39 961.7
20260905084755 61 333 2.0 0.0 0.00 0.05 0.00 39 961.7
20260905084254 61 310 2.0 0.0 0.00 0.05 0.00 39 961.7
20260905083755 61 321 2.0 0.0 0.00 0.05 0.00 39 961.7
20260905083256 61 323 1.0 0.0 0.00 0.05 0.00 37 962.1
20260905082754 61 316 0.0 0.0 0.00 0.05 0.00 35 962.1
20260905082256 62 327 2.0 0.0 0.00 0.05 0.00 35 962.1
20260905081753 62 309 1.0 0.0 0.00 0.05 0.00 34 962.1
20260905081253 63 321 3.0 0.0 0.00 0.05 0.00 33 962.1
20260905080748 65 315 3.0 0.0 0.00 0.05 0.00 32 962.4
20260905080240 66 70 2.0 0.0 0.00 0.05 0.00 31 962.4
20260905075733 66 97 2.0 0.0 0.00 0.05 0.00 29 962.4
20260905075242 66 282 2.0 0.0 0.00 0.05 0.00 27 962.4
20260905074749 65 304 2.0 0.0 0.00 0.05 0.00 30 962.4
20260905074302 65 316 0.0 0.0 0.00 0.05 0.00 30 962.4
20260905073742 66 336 3.0 0.0 0.00 0.05 0.00 29 962.1
20260905073243 67 271 3.0 0.0 0.00 0.05 0.00 29 962.1
20260905072736 67 271 1.0 0.0 0.00 0.05 0.00 31 962.1
20260905072259 68 336 2.0 0.0 0.00 0.05 0.00 34 962.1
20260905071740 68 230 2.0 0.0 0.00 0.05 0.00 37 962.1
20260905071236 69 179 2.0 0.0 0.00 0.05 0.00 34 962.1
20260905070739 69 242 4.0 0.0 0.00 0.05 0.00 29 962.1
20260905070257 69 268 4.0 0.0 0.00 0.05 0.00 24 962.1
20260905065803 69 266 4.0 0.0 0.00 0.05 0.03 24 962.1
20260905065240 69 266 5.0 0.0 0.00 0.05 0.03 25 961.7
20260905064742 69 251 5.0 0.0 0.00 0.05 0.03 22 961.7
20260905064311 69 257 4.0 0.0 0.00 0.05 0.03 23 961.7
20260905063727 69 206 3.0 0.0 0.00 0.05 0.03 29 961.7
20260905063253 69 181 3.0 0.0 0.00 0.05 0.03 27 961.7
20260905062740 70 195 4.0 0.0 0.00 0.05 0.03 23 961.7
20260905062241 70 260 3.0 0.0 0.00 0.05 0.03 21 961.7
20260905061739 70 254 4.0 0.0 0.00 0.05 0.03 20 961.7
20260905061231 70 262 4.0 0.0 0.00 0.05 0.03 18 961.7
20260905060805 70 269 5.0 0.0 0.00 0.05 0.03 19 961.7
20260905060231 70 282 5.0 0.0 0.00 0.05 0.03 19 961.7
20260905055804 70 260 6.0 0.0 0.00 0.05 0.03 19 961.7
20260905055231 70 257 6.0 0.0 0.00 0.05 0.03 19 961.7
20260905054703 71 253 4.0 0.0 0.00 0.05 0.03 19 961.7
20260905054243 71 257 4.0 0.0 0.00 0.05 0.03 18 961.7
20260905053741 71 250 3.0 0.0 0.00 0.05 0.03 17 961.7
20260905053255 70 244 4.0 0.0 0.00 0.05 0.03 17 961.7